Location: Appleton
(44.2618°N, 88.4157°W)
Time: 10:44:36
(UTC+00:00)

SR - Visible Passes

Search period start: 01 March 2021 00:00
Search period end: 11 March 2021 00:00
Orbit: 573 x 882 km, 66.7° (Epoch: 28 February)

Date Brightness Start Highest point End Pass type
(mag) Time Alt. Az. Time Alt. Az. Time Alt. Az.
01 Mar ? 00:55:08 10° S 00:59:45 36° ESE 01:04:13 13° NE visible
01 Mar ? 02:36:58 10° WSW 02:41:50 38° NW 02:43:47 29° N visible
01 Mar ? 07:56:01 13° NNE 07:56:01 13° NNE 07:58:37 10° ENE visible
01 Mar ? 09:35:29 19° NNW 09:39:30 45° NE 09:45:06 10° ESE visible
01 Mar ? 11:16:11 10° NW 11:21:31 35° WSW 11:26:43 10° S visible
02 Mar ? 00:06:53 10° SSE 00:10:24 19° ESE 00:14:06 10° ENE visible
02 Mar ? 01:46:42 10° SW 01:51:50 67° NW 01:57:27 10° NNE visible
02 Mar ? 03:31:42 10° WNW 03:35:07 16° NNW 03:37:02 14° N visible
02 Mar ? 08:48:24 27° NNE 08:49:21 28° NE 08:54:22 10° ESE visible
02 Mar ? 10:27:55 21° NW 10:31:56 65° WSW 10:37:40 10° SSE visible
03 Mar ? 00:56:59 10° SSW 01:02:03 67° ESE 01:07:37 10° NE visible
03 Mar ? 02:40:21 10° W 02:44:43 25° NW 02:49:22 10° NNE visible
03 Mar ? 08:01:51 14° ENE 08:01:51 14° ENE 08:03:05 10° E visible
03 Mar ? 09:41:25 64° N 09:42:10 73° ENE 09:48:00 10° SE visible
03 Mar ? 11:20:58 15° WNW 11:23:41 20° WSW 11:27:47 10° SSW visible
04 Mar ? 00:07:55 10° S 00:12:31 34° ESE 00:17:29 10° NE visible
04 Mar ? 01:49:35 10° WSW 01:54:31 40° NW 01:59:52 10° NNE visible
04 Mar ? 03:36:17 10° NW 03:38:19 12° NNW 03:40:24 10° N visible
04 Mar ? 08:55:18 24° ESE 08:55:18 24° ESE 08:57:45 10° ESE visible
04 Mar ? 10:34:52 36° SW 10:34:52 36° SW 10:39:33 10° S visible
05 Mar ? 00:59:23 10° SW 01:04:32 71° NW 01:10:13 10° NNE visible
05 Mar ? 02:44:13 10° WNW 02:47:46 17° NNW 02:51:28 10° N visible
05 Mar ? 09:48:56 19° SSE 09:48:56 19° SSE 09:50:26 10° SSE visible
06 Mar ? 00:09:43 10° SSW 00:14:47 63° ESE 00:20:21 10° NE visible
06 Mar ? 01:52:55 10° W 01:57:23 26° NW 02:02:08 10° NNE visible
07 Mar ? 01:02:13 10° WSW 01:07:13 42° NW 01:12:38 10° NNE visible
07 Mar ? 02:48:40 10° NW 02:50:58 12° NNW 02:53:18 10° N visible
08 Mar ? 00:12:03 10° SW 00:17:15 75° WNW 00:22:58 10° NNE visible
08 Mar ? 01:56:43 10° WNW 02:00:25 18° NW 02:04:17 10° N visible
09 Mar ? 01:05:30 10° W 01:10:03 27° NW 01:14:56 10° NNE visible
10 Mar ? 00:14:50 10° WSW 00:19:55 45° NW 00:25:24 10° NNE visible
10 Mar ? 02:01:05 10° NW 02:03:36 13° NNW 02:06:10 10° N visible
